Flag for Australia Weather past 2 weeks in Rockhampton, Queensland, Australia

Now
64 °F

Clear.


Feels Like: 64 °F
Forecast: 64 / 84 °F
Wind: 1 mph from South

Location: Rockhampton Airport

Current Time: Oct 23, 2014 at 11:33:14 PM

Latest Report: Oct 23, 2014 at 11:00 PM


Visibility: N/A

Pressure: 30.15 "Hg

Humidity: 83%

Dew point: 59 °F

Location of RockhamptonLocation

Historic Weather in Rockhampton — Graph

°F

Rockhampton temperature yesterday

Maximum temperature yesterday: 81 °F (at 1:00 PM)
Minimum temperature yesterday: 68 °F (at 3:00 AM)
Average temperature yesterday: 73 °F

Past Weeks' High & Low Weather Summary

 TemperatureHumidityPressure
High88 °F (Oct 14, 2:30 PM)100% (Oct 9, 4:00 AM)30.27 "Hg (Oct 9, 4:00 AM)
Low50 °F (Oct 16, 5:30 AM)13% (Oct 15, 2:00 PM)29.77 "Hg (Oct 14, 2:00 PM)
Average72 °F61%30.06 "Hg
* Reported Oct 8 10:00 PM — Oct 23 10:00 PM, Rockhampton, Weather by CustomWeather, © 2014

Note: Actual official high and low records may vary slightly from our data, if they occured in-between our weather recording intervals... More about our weather records

Advertising

Rockhampton weather history for previous 24 hours

 ConditionsComfort  
Time TempWeatherWind HumidityBarometerVisibility
10:00 PM
Oct 23
66 °FClear.No wind73%30.15 "Hg10 mi
9:30 PM68 °FClear.3 mph73%30.15 "Hg10 mi
9:00 PM68 °FClear.5 mph69%30.12 "Hg10 mi
8:30 PM68 °FClear.5 mph69%30.12 "Hg10 mi
8:00 PM70 °FClear.3 mph64%30.09 "Hg10 mi
7:30 PM70 °FClear.6 mph60%30.09 "Hg10 mi
7:00 PM72 °FClear.8 mph50%30.09 "Hg10 mi
6:30 PM72 °FClear.6 mph53%30.07 "Hg10 mi
6:00 PM73 °FSunny.10 mph47%30.07 "Hg10 mi
5:30 PM75 °FSunny.8 mph41%30.07 "Hg10 mi
5:00 PM77 °FSunny.8 mph42%30.04 "Hg10 mi
4:30 PM79 °FSunny.9 mph37%30.01 "Hg10 mi
4:00 PM81 °FSunny.10 mph32%30.01 "Hg10 mi
3:30 PM81 °FSunny.10 mph37%30.01 "Hg10 mi
3:00 PM82 °FSunny.10 mph37%30.01 "Hg10 mi
2:30 PM82 °FSunny.12 mph32%30.01 "Hg10 mi
2:00 PM82 °FSunny.10 mph35%30.04 "HgN/A
1:30 PM82 °FSunny.10 mph35%30.04 "HgN/A
1:00 PM82 °FSunny.9 mph35%30.07 "Hg10 mi
12:30 PM82 °FSunny.8 mph35%30.07 "Hg10 mi
12:00 PM81 °FSunny.10 mph32%30.07 "Hg10 mi
11:30 AM81 °FSunny.10 mph32%30.09 "Hg10 mi
11:00 AM81 °FSunny.10 mph34%30.09 "Hg10 mi
10:30 AM79 °FSunny.10 mph34%30.12 "Hg10 mi
10:00 AM77 °FSunny.10 mph42%30.15 "Hg10 mi
9:30 AM75 °FSunny.12 mph44%30.15 "Hg10 mi
9:00 AM75 °FSunny.12 mph47%30.15 "Hg10 mi
8:30 AM72 °FPassing clouds.10 mph57%30.15 "HgN/A
8:00 AM70 °FPassing clouds.9 mph60%30.15 "HgN/A
7:30 AM68 °FSunny.8 mph64%30.15 "Hg10 mi
7:00 AM66 °FSunny.8 mph68%30.15 "Hg10 mi
6:30 AM64 °FSunny.7 mph73%30.15 "Hg10 mi
6:00 AM63 °FSunny.6 mph77%30.15 "Hg10 mi
5:30 AM61 °FSunny.7 mph83%30.15 "HgN/A
5:00 AM61 °FClear.6 mph83%30.12 "HgN/A
4:30 AM63 °FClear.8 mph77%30.12 "HgN/A
4:00 AM63 °FClear.7 mph77%30.12 "HgN/A
3:00 AM63 °FClear.7 mph77%30.12 "HgN/A
2:30 AM63 °FClear.8 mph77%30.12 "HgN/A
2:00 AM63 °FClear.7 mph77%30.12 "HgN/A
1:30 AM64 °FClear.6 mph73%30.12 "HgN/A
1:00 AM66 °FClear.7 mph73%30.15 "HgN/A
12:30 AM68 °FClear.7 mph69%30.15 "HgN/A
12:00 AM68 °FClear.9 mph69%30.15 "HgN/A
11:30 PM
Oct 22
68 °FClear.8 mph69%30.15 "HgN/A
11:00 PM68 °FClear.8 mph73%30.15 "HgN/A
Weather by CustomWeather, © 2014

See weather overviewHow to use our weather pages